Gillette, WY

7:12 PM MDT on April 27, 2017 (GMT -0600)
Lakeland Hills | | Change Station
Active Advisory: Winter Weather Advisory

Elev 4580 ft 44.30 °N, 105.48 °W | Updated 6 seconds ago

Rain
Rain
35.4 °F
Feels Like 35 °F
N
1.8
Wind Variable Wind from NW
Gusts 3.1 mph

Today
High -- | Low -- °F
--% Chance of Precip.
Yesterday
High -- | Low -- °F
Precip. -- in
Pressure 29.68 in
Visibility -9999.0 miles
Clouds Overcast 900 ft
Windchill 35 °F
Dew Point 34 °F
Humidity 94%
Rainfall 0.49 in
Snow Depth Not available.
5:58 AM 8:01 PM
Waxing Crescent, 4% visible
METAR KGCC 280053Z AUTO 06009KT RA OVC009 02/02 A2964 RMK AO2 SLP051 P0012 T00220017 $
Pressure 29.68 in
Visibility -9999.0 miles
Clouds Overcast 900 ft
Windchill 35 °F
Dew Point 34 °F
Humidity 94%
Rainfall 0.49 in
Snow Depth Not available.
5:58 AM 8:01 PM
Waxing Crescent, 4% visible
METAR KGCC 280053Z AUTO 06009KT RA OVC009 02/02 A2964 RMK AO2 SLP051 P0012 T00220017 $

Get Your Daily Forecast Email!

Thanks for signing up!

Be on the lookout for a verification email in your inbox.

You'll start receiving severe weather alerts in your inbox..

×

10-Day Weather Forecast

Almanac

Astronomy

Apr. 27, 2017 Rise Set
Actual Time
Civil Twilight
Nautical Twilight
Astronomical Twilight
Moon
Length of Visible Light
Length of Day
Tomorrow will be .
, % of the Moon is Illuminated

Today's Extremes

State Highs State Lows

Community

WunderPhotos

WunderBlog® & News

Nearby

Air Quality

  Air Quality AQ Index Pollutant
Not available.

Snow Depth

Station Depth Elevation

Earthquake Activity

City Distance Mag. Time & Date
Minimum magnitude displayed is 2.5.

Coastal Water Temperatures

Place Temperature

Stations

Nearby Weather Stations

Station Location Temp. Windchill Dew Point Humidity Wind Precip. Elev Updated Type
                   

Watches & Warnings

Winter Weather Advisory
Issued: 3:03 PM MDT Apr. 27, 2017 – National Weather Service

... Winter Weather Advisory remains in effect from 6 PM this
evening to 6 PM MDT Friday...

* timing... rain and snow will continue to develop late this
afternoon and early evening, becoming all snow tonight. Snow,
moderate to heavy at times, will continue through at least
midday Friday, then begin to taper off in the afternoon.

* Main impact... snowfall totals of 2 to 6 inches are expected. The
heaviest snowfall totals will generally be found across western
portions of northern Campbell County and southwestern portions
of Weston County.

* Other impacts... visibilities will be reduced to near a quarter
mile in the heavier snow. With many trees beginning to Leaf
out, the heavy wet snow could bring down some tree limbs.

Precautionary/preparedness actions...

A Winter Weather Advisory for snow means snow accumulation will
create hazardous conditions. Use caution when traveling.